Location: Bratislava
(48.1500°N, 17.1170°E)
Time: 13:15:55
(UTC+02:00)

ISS - Visible Passes

Search period start: 14 May 2021 00:00
Search period end: 24 May 2021 00:00
Orbit: 417 x 422 km, 51.6° (Epoch: 14 May)

Date Brightness Start Highest point End Pass type
(mag) Time Alt. Az. Time Alt. Az. Time Alt. Az.
14 May -2.6 01:18:38 34° NW 01:19:33 44° N 01:22:49 10° ENE visible
14 May -3.4 02:53:17 10° WNW 02:56:40 67° NNE 03:00:02 10° ESE visible
14 May -2.9 04:30:18 10° W 04:33:20 30° SW 04:36:21 10° SSE visible
14 May -2.0 21:17:01 10° SSE 21:18:46 14° SE 21:20:32 10° ESE visible
14 May -3.9 22:51:44 10° SW 22:55:04 68° SSE 22:58:26 10° ENE visible
15 May -2.8 00:28:44 10° W 00:32:01 47° N 00:35:18 10° ENE visible
15 May -3.0 02:05:50 10° WNW 02:09:10 54° NNE 02:12:30 10° E visible
15 May -3.5 03:42:43 10° WNW 03:45:59 45° SSW 03:49:13 10° SE visible
15 May -3.5 22:04:26 10° SW 22:07:40 46° SSE 22:10:56 10° ENE visible
15 May -3.0 23:41:11 10° W 23:44:29 54° NNW 23:47:49 10° ENE visible
16 May -2.8 01:18:21 10° WNW 01:21:38 47° N 01:24:56 10° E visible
16 May -3.9 02:55:13 10° WNW 02:58:35 67° SSW 03:01:56 10° SE visible
16 May -3.0 21:17:19 10° SSW 21:20:19 31° SE 21:23:20 10° E visible
16 May -3.4 22:53:38 10° W 22:56:59 66° NNW 23:00:21 10° ENE visible
17 May -2.6 00:30:50 10° WNW 00:34:06 44° N 00:37:22 10° ENE visible
17 May -3.8 02:07:45 10° WNW 02:11:09 87° NNE 02:14:32 10° ESE visible
17 May -2.4 03:45:03 10° W 03:47:37 20° SW 03:50:12 10° S visible
17 May -3.8 22:06:08 10° WSW 22:09:30 86° NNW 22:12:53 10° ENE visible
17 May -2.6 23:43:17 10° WNW 23:46:32 44° N 23:49:48 10° ENE visible
18 May -3.0 01:20:18 10° WNW 01:22:53 47° NW 01:22:53 47° NW visible
18 May -3.8 21:18:42 10° SW 21:22:03 68° SSE 21:25:24 10° ENE visible
18 May -2.7 22:55:43 10° W 22:59:00 47° N 23:02:16 10° ENE visible
19 May -3.1 00:32:50 10° WNW 00:36:09 54° NNE 00:36:27 52° NE visible
19 May -3.0 22:08:08 10° W 22:11:27 54° NNW 22:14:47 10° ENE visible
19 May -2.8 23:45:19 10° WNW 23:48:36 47° N 23:50:16 25° ENE visible
20 May -1.6 01:22:11 10° WNW 01:23:11 18° WNW 01:23:11 18° WNW visible
20 May -3.3 21:20:35 10° W 21:23:56 66° NNW 21:27:17 10° ENE visible
20 May -2.6 22:57:47 10° WNW 23:01:03 44° N 23:04:10 11° ENE visible
21 May -2.9 00:34:42 10° WNW 00:37:05 43° WNW 00:37:05 43° WNW visible
21 May -2.6 22:10:14 10° WNW 22:13:29 44° N 22:16:44 10° ENE visible
21 May -3.5 23:47:13 10° WNW 23:50:36 67° NNE 23:51:02 58° ENE visible
22 May -2.7 21:22:39 10° W 21:25:54 47° N 21:29:11 10° ENE visible
22 May -3.1 22:59:44 10° WNW 23:03:04 54° NNE 23:05:01 22° E visible
23 May -1.8 00:36:37 10° WNW 00:37:57 21° W 00:37:57 21° W visible
23 May -2.8 22:12:14 10° WNW 22:15:30 47° N 22:18:47 10° E visible
23 May -3.5 23:49:05 10° WNW 23:51:57 56° WSW 23:51:57 56° WSW visible
